Location: Unspecified
(0.0000°N, 0.0000°E)
Time: 07:58:58
(UTC+00:00)

Vanguard 2 Rocket - Visible Passes

Search period start: 20 October 2021 00:00
Search period end: 30 October 2021 00:00
Orbit: 556 x 3323 km, 32.9° (Epoch: 19 October)

Date Brightness Start Highest point End Pass type
(mag) Time Alt. Az. Time Alt. Az. Time Alt. Az.
20 Oct 9.5 02:01:26 60° SSE 02:02:19 61° SSE 02:16:53 10° ENE visible
20 Oct 8.9 04:07:21 22° WSW 04:19:52 59° NW 04:30:48 10° NE visible
20 Oct 10.7 20:07:48 10° SSW 20:14:14 14° S 20:21:56 10° SSE visible
20 Oct 10.6 22:24:39 10° SSW 22:35:01 22° S 22:35:01 22° S visible
21 Oct 10.1 00:40:23 10° SW 01:06:28 37° ESE 01:15:32 10° E visible
21 Oct 9.0 03:12:23 53° WSW 03:18:27 80° NW 03:31:21 10° NE visible
21 Oct 9.4 05:22:07 10° W 05:34:25 27° NW 05:42:42 10° NNE visible
21 Oct 10.5 19:06:33 10° SSW 19:11:24 13° S 19:17:13 10° SSE visible
21 Oct 10.7 21:24:03 10° SSW 21:34:01 18° SSE 21:37:54 17° SSE visible
21 Oct 10.7 23:39:04 10° SSW 00:11:22 14° E 00:13:04 10° E visible
22 Oct 9.2 02:17:16 79° ESE 02:17:16 79° ESE 02:31:16 10° ENE visible
22 Oct 9.2 04:23:10 23° W 04:33:30 42° NW 04:44:10 10° NNE visible
22 Oct 10.3 18:05:15 10° SSW 18:09:17 13° S 18:14:13 10° SSE visible
22 Oct 10.7 20:23:52 10° SSW 20:30:32 14° S 20:38:21 10° SE visible
22 Oct 10.5 22:38:17 10° SSW 22:46:30 24° S 22:46:30 24° S visible
23 Oct 9.9 01:21:59 40° E 01:21:59 40° E 01:30:25 10° ENE visible
23 Oct 9.1 03:27:52 51° W 03:32:08 60° NW 03:44:58 10° NE visible
23 Oct 10.6 19:24:21 10° S 19:27:30 11° S 19:30:58 10° SSE visible
23 Oct 10.5 21:38:00 10° SSW 21:49:25 22° SSE 21:49:25 22° SSE visible
23 Oct 10.7 23:52:23 10° SW 00:26:34 15° E 00:28:38 10° ENE visible
24 Oct 9.2 02:32:26 72° NNE 02:32:26 72° NNE 02:45:11 10° NE visible
24 Oct 9.6 04:38:18 19° WNW 04:47:21 30° NW 04:57:15 10° NNE visible
24 Oct 10.6 20:38:20 10° SSW 20:46:37 16° SSE 20:52:21 14° SE visible
24 Oct 10.5 22:51:37 10° SSW 22:58:05 25° SSW 22:58:05 25° SSW visible
25 Oct 9.9 01:36:51 41° ENE 01:36:51 41° ENE 01:44:44 10° ENE visible
25 Oct 9.4 03:42:42 41° WNW 03:45:52 43° NW 03:58:20 10° NNE visible
25 Oct 10.6 19:39:53 10° S 19:43:38 11° SSE 19:47:50 10° SSE visible
25 Oct 10.3 21:51:26 10° SSW 22:01:03 27° S 22:01:03 27° S visible
26 Oct 10.7 00:05:46 10° SW 00:41:09 17° ENE 00:43:28 10° ENE visible
26 Oct 9.3 02:46:59 55° N 02:46:59 55° N 02:58:46 10° NE visible
26 Oct 9.9 04:52:50 13° WNW 05:01:36 21° NW 05:10:05 10° N visible
26 Oct 10.4 20:51:52 10° SSW 21:02:12 21° SSE 21:04:03 20° SE visible
26 Oct 10.5 23:04:55 10° SW 23:45:19 - ENE 23:09:47 24° SSW visible
27 Oct 9.9 01:51:09 38° NE 01:51:09 38° NE 01:58:36 10° NE visible
27 Oct 9.7 03:56:59 30° NW 03:59:51 31° NW 04:11:29 10° NNE visible
27 Oct 10.5 19:53:15 10° S 19:59:29 14° SSE 20:06:58 10° SE visible
27 Oct 10.2 22:04:41 10° SSW 22:12:49 30° S 22:12:49 30° S visible
28 Oct 10.6 00:55:13 18° ENE 00:55:13 18° ENE 00:57:43 10° ENE visible
28 Oct 9.6 03:01:02 42° NNW 03:01:02 42° NNW 03:12:07 10° NNE visible
28 Oct 10.1 05:08:54 10° WNW 05:16:28 14° NNW 05:22:38 10° N visible
28 Oct 10.2 21:05:04 10° SSW 21:15:54 28° SSE 21:15:54 28° SSE visible
28 Oct 10.6 23:18:19 10° SW 23:59:10 - ENE 23:21:37 20° SW visible
29 Oct 10.0 02:04:59 34° NNE 02:04:59 34° NNE 02:12:08 10° NE visible
29 Oct 10.0 04:10:48 21° NW 04:14:20 23° NNW 04:24:30 10° NNE visible
29 Oct 10.3 20:06:11 10° S 20:14:49 19° SSE 20:19:00 17° SE visible
29 Oct 10.1 22:17:58 10° SW 22:24:44 32° SSW 22:24:44 32° SSW visible
